Location: T�chigga el Be�da
(16.4766°N, 9.3887°W)
Time: 15:24:02
(UTC+00:00)

Daily predictions for brighter satellites

Satellite Brightness Start Highest point End
(mag) Time Altitude Azimuth Time Altitude Azimuth Time Altitude Azimuth
Meteor 1-25 Rocket 4.2 18:57:59 10° S 19:03:42 76° E 19:09:21 10° N
Cosmos 2208 Rocket 4.5 18:59:53 10° S 19:04:58 41° E 19:10:01 10° NNE
Cosmos 1812 3.1 19:01:09 10° N 19:04:59 71° W 19:08:48 10° S
Cosmos 1869 Rocket 4.3 19:01:36 10° SSE 19:05:31 31° E 19:09:24 10° NNE
Cosmos 1777 Rocket 4.0 19:00:57 10° N 19:06:11 81° ENE 19:11:24 10° SSE
GPS 2-18 Rocket1 3.3 19:04:20 10° W 19:08:15 69° NNW 19:12:07 10° ENE
Haruka 4.3 19:06:15 10° NW 19:09:55 33° NNE 19:18:59 10° E
CZ-2D R/B 4.1 19:06:38 10° SE 19:10:02 29° ENE 19:13:25 10° NNE
CSL-04 Rocket 4.2 19:05:47 10° SE 19:10:50 37° ENE 19:15:52 10° N
Cosmos 2242 Rocket 4.2 19:06:52 10° NNE 19:11:05 36° E 19:15:16 10° SSE
SL-27 R/B 3.3 19:08:06 10° NNW 19:11:18 50° WSW 19:14:31 10° S
Palapa 6 Rocket 3.9 19:08:59 10° SW 19:12:20 29° SSE 19:15:56 10° E
CZ-4 R/B 1.4 19:10:02 10° SSE 19:14:11 65° ENE 19:18:19 10° N
Cosmos 1570 Rocket 3.9 19:14:06 10° S 19:19:18 77° ESE 19:24:31 10° NNE
YAOGAN 1 2.6 19:15:16 10° SSE 19:19:28 54° ENE 19:23:41 10° N
Cosmos 1891 Rocket 4.4 19:15:33 10° S 19:21:37 77° E 19:27:50 10° N
CRYOSAT 2 4.3 19:16:49 10° SSE 19:21:41 70° E 19:26:33 10° N
Hubble Space Telescope 2.7 19:20:50 10° NW 19:23:40 18° N 19:26:19 11° NE
Cosmos 540 Rocket 3.6 19:19:34 10° S 19:24:29 50° ESE 19:29:26 10° NNE
Ariane Rocket 4.3 19:21:55 10° ESE 19:25:22 18° ENE 19:28:48 10° NNE
Cosmos 44 3.2 19:24:31 10° NNW 19:29:01 57° ENE 19:33:46 10° SE
CSL-04 Debris 4.1 19:27:43 10° SSE 19:33:06 69° ENE 19:38:31 10° N
FALCON 9 R/B 3.8 19:12:49 10° WNW 19:33:53 47° N 19:38:38 18° ENE
IUS-7 SRM-1 4.3 19:32:37 10° W 19:34:24 17° SSW 19:35:55 10° SSE
APEX 3.9 19:31:26 10° SSW 19:35:19 69° WNW 19:40:17 10° NNE
NOAA 11 4.3 19:36:15 10° S 19:41:41 80° WSW 19:47:07 10° NNW
ATLAS 2AS CENTAUR R/B 3.3 19:39:50 10° S 19:46:55 43° ESE 19:53:45 12° NE
Cosmos 1441 Rocket 3.7 19:44:48 10° SSE 19:48:16 34° E 19:48:41 33° E
ATLAS CENTAUR Rocket 2.8 19:45:53 10° W 19:49:43 58° NNW 19:55:53 18° ENE
Meteor 1-5 Rocket 4.3 19:44:50 10° SSE 19:49:54 45° E 19:55:07 10° NNE
CZ-2C R/B 4.0 19:51:45 10° NNE 19:56:18 48° E 20:00:53 10° S
FALCON 9 R/B 3.6 19:53:04 10° WSW 19:58:51 87° NNW 20:19:47 22° ENE
Cosmos 1656 3.6 19:53:51 10° S 19:59:09 55° ESE 20:03:03 18° NNE
Nadezhda 4 Rocket 4.3 19:53:14 10° NNE 19:59:13 44° E 20:05:11 10° SSE
H-2A R/B 2.9 20:03:39 31° NE 20:03:39 31° NE 20:07:26 10° NNE
Cosmos 1697 Rocket 3.7 20:01:09 10° SSE 20:04:30 27° SE 20:04:30 27° SE
HJ-1C 3.6 20:07:58 10° S 20:11:15 67° W 20:14:31 10° NNW
SWIFT 4.3 20:10:45 10° SSW 20:12:52 17° S 20:12:52 17° S
Delta 198 4.3 20:09:02 10° WNW 20:15:10 64° SSW 20:16:55 41° SE
USA 267 3.1 20:12:11 30° NE 20:15:38 71° SE 20:22:09 10° SSW
Centaur AC-112 3.3 20:13:22 10° WNW 20:16:48 88° SSW 20:20:46 34° ESE
COSMOS 2487 3.6 20:18:07 10° NNW 20:21:22 41° W 20:22:21 32° SW
MOS 1 4.2 20:27:33 63° ENE 20:27:33 63° ENE 20:32:52 10° N
Palapa B4 Rocket 4.4 20:19:19 10° WSW 20:30:47 81° SSE 20:32:46 55° E
Cosmos 1634 Rocket 3.9 20:27:54 10° S 20:34:11 88° E 20:40:31 10° N
COSMOS 2455 2.8 20:28:33 10° SSW 20:34:32 81° WNW 20:36:27 46° N
GPS 2-12 Rocket1 3.6 20:30:48 10° W 20:34:21 52° WNW 20:34:21 52° WNW
Cosmos 2344 4.3 20:28:31 10° S 20:34:45 36° SE 20:34:45 36° SE
Timation 2 Rocket 4.0 20:33:52 10° NNW 20:40:19 69° NE 20:40:19 69° NE
H-2A R/B 3.8 20:10:25 10° W 20:42:02 41° NNW 20:44:20 32° NNE
Skynet4D Del rocket 4.5 20:39:57 10° WNW 20:45:30 48° N 20:45:30 48° N
Meteor 1-11 Rocket 4.3 20:43:35 10° SSW 20:49:07 54° W 20:54:32 10° N
Centaur D-1AR AC-39 2.5 20:39:20 10° WNW 20:48:52 63° NNW 20:48:52 63° NNW
SJ 16-02 3.2 20:47:54 10° NNW 20:49:59 25° NW 20:49:59 25° NW
Cosmos 1898 Rocket 4.4 20:49:32 10° NNW 20:54:28 46° WSW 20:54:42 46° WSW
Hubble Space Telescope 3.8 21:01:24 10° NW 21:01:40 11° NW 21:01:40 11° NW
NOSS 3-4 (A) 4.0 20:59:41 10° SW 21:04:53 50° W 21:04:53 50° W
NOSS 3-4 (C) 4.0 20:59:44 10° SW 21:04:54 50° W 21:04:54 50° W
CZ-3 Stage 3 4.4 21:55:49 10° SW 22:37:29 25° ENE 23:19:36 10° ENE
CZ-3 Stage 3 4.4 21:55:50 10° SW 22:37:30 25° ENE 23:19:36 10° ENE
